Tracking 21473 objects as of 27-Sep-2020
HD Live streaming from Space Station
objects crossing your sky now

STARLINK-1423

Track STARLINK-1423 now!
10-day predictions
STARLINK-1423 is classified as:


NORAD ID: 45710
Int'l Code: 2020-035BF
Perigee: 517.4 km
Apogee: 519.1 km
Inclination: 53.0 °
Period: 94.8 minutes
Semi major axis: 6889 km
RCS: Unknown
Launch date: June 4, 2020
Source: United States (US)
Launch site: AIR FORCE EASTERN TEST RANGE (AFETR)
aabbcc
Your satellite tracking list
Your tracking list is empty




NASA's NSSDC Master Catalog

Two Line Element Set (TLE):
1 45710U 20035BF  20271.58337963 -.01048640 +00000-0 -55207-1 0  9998
2 45710 053.0003 326.3060 0001192 090.7213 266.4145 15.18250919001768
Source of the keplerian elements: AFSPC